Location: Golden Pond Observatory
(36.7667°N, 88.0167°W)
Time: 23:44:22
(UTC-06:00)

Tiangong 1 - Visible Passes

Search period start: 18 January 2018 00:00
Search period end: 28 January 2018 00:00
Orbit: 263 x 288 km, 42.8° (Epoch: 18 January)

Date Brightness Start Highest point End Pass type
(mag) Time Alt. Az. Time Alt. Az. Time Alt. Az.
18 Jan 2.8 18:31:11 10° NW 18:32:19 17° NNW 18:32:19 17° NNW visible
19 Jan 2.6 18:30:57 10° NW 18:32:11 19° NNW 18:32:11 19° NNW visible
20 Jan 2.2 18:30:31 10° NW 18:31:59 24° NNW 18:31:59 24° NNW visible
21 Jan 1.5 18:29:56 10° WNW 18:31:46 36° NNW 18:31:46 36° NNW visible
22 Jan 0.4 18:29:16 10° WNW 18:31:33 73° NW 18:31:33 73° NW visible
23 Jan 1.3 18:28:35 10° WNW 18:30:58 46° SSW 18:31:24 39° S visible
24 Jan 2.7 18:27:56 10° W 18:30:00 23° SSW 18:31:22 15° SSE visible
25 Jan 3.6 18:27:41 10° WSW 18:28:51 12° SW 18:30:00 10° S visible
